www.pogodaiklimat.ru

Погода и климат >> Архив погоды >> Мексика >> Culiacan


ПОГОДА в Culiacan

  • Прогноз погоды в Culiacan
  • Монитор погоды в Culiacan
  • Климат города

АРХИВ ПОГОДЫ в Culiacan

Время (UTC), дата Ветер
(напр.,м/с)
 
Видим.   Явления Облачность Т
(С)
Тd
(С)
f
(%)
Тe
(С)
Тes
(С)
Комфортность P
(гПа)
Po
(гПа)
Тmin
(С)
Tmax
(С)
R
(мм)
R24
(мм)
S
(см)
00 5.12 Ю 1 16 км ясно +30.0 +12.6 34 +31 +31 жарко 1015.4 1011.0 +13.4 +32.4
03 5.12 штиль 0 16 км ясно +21.6 +16.0 70 +25 +25 комфорт 1015.3 1010.9
06 5.12 штиль 0 16 км ясно +18.4 +15.9 85 +19 +19 1015.4 1011.0 +32.4
09 5.12 штиль 0 16 км ясно +16.2 +13.9 86 +16 +16 1015.5 1011.0
15 5.12 штиль 0 16 км ясно +18.2 +13.5 74 +18 +20 1015.2 1010.6
21 5.12 ЮВ 1 16 км {морось} 8/0 2000 м
[As op]
+27.0 +19.2 62 +32 +35 очень
душно
1016.9 1012.4 3
00 6.12 ЮЗ 1 16 км 5/0 2000 м
[As trans]
+28.8 +15.0 43 +31 +31 жарко 1016.8 1012.3 +15.2 +29.5
03 6.12 З 1 16 км 4/0 2000 м
[As trans]
+24.0 +18.7 72 +29 +29 душно 1017.7 1013.2
06 6.12 ЮЗ 1 16 км 3/0 2000 м
[As trans]
+21.6 +18.0 80 +26 +26 душно 1018.3 1013.9 +15.2 +29.5
09 6.12 З 1 16 км ясно +18.3 +17.4 94 +20 +20 1018.6 1014.1
12 6.12 ЮЗ 1 16 км 1/0 2000 м
[As trans]
+18.1 +18.1 100 +19 +19 1018.1 1013.6 +17.8 +29.5
15 6.12 СЗ 1 16 км 5/0 2000 м
[As trans]
+18.3 +18.3 100 +20 +21 1018.7 1014.1
18 6.12 Ю 1 16 км 3/0 2000 м
[As trans]
+29.6 +16.0 44 +33 +41 душно 1017.8 1013.3 +16.7 +30.8
21 6.12 Ю 1 16 км 8/0 2000 м
[As op]
+32.8 +17.1 39 +36 +39 очень
душно
1017.1 1012.6
00 7.12 ЮЗ 2 16 км 10/0 2000 м
[As op]
+29.0 +15.3 43 +32 +32 душно 1016.7 1012.3 +16.7 +33.8
03 7.12 ЮВ 1 16 км 10/0 2000 м
[As op]
+26.0 +18.7 64 +31 +31 очень
душно
1017.7 1013.3
06 7.12 Ю 1 16 км 8/0
[As op]
+23.6 +20.4 82 +29 +29 душно 1018.4 1014.0 +33.8
09 7.12 ЮВ 1 16 км 8/0 2000 м
[As op]
+21.2 +17.9 81 +25 +25 комфорт 1019.1 1014.6
12 7.12 В 1 16 км 10/0 2000 м
[As op]
+20.0 +18.2 89 +24 +24 комфорт 1018.5 1014.0 +19.0 +33.8
15 7.12 Ю 1 16 км 10/0 2000 м
[As op]
+23.0 +22.4 96 +31 +32 очень
душно
1018.9 1014.4
00 8.12 Ю 1 16 км 8/0 2000 м
[As op]
+21.6 +21.3 98 +28 +28 очень
душно
1018.2 1014.2 +19.0 +24.0
03 8.12 ЮВ 1 16 км 3/0 2000 м
[As op]
+19.6 +19.2 98 +23 +23 комфорт 1017.9 1013.4
06 8.12 В 1 16 км 5/0 2000 м
[As op]
+18.6 +18.1 97 +21 +21 комфорт 1017.8 1013.3 +17.8 +24.0
15 8.12 штиль 0 16 км ясно +17.4 +16.8 96 +17 +19 1017.4 1012.8
18 8.12 З 1 16 км ясно +24.0 +17.2 66 +28 +38 душно 1021.7 1017.1 +14.0 +24.1
21 8.12 ЮЗ 1 16 км ясно +27.4 +15.1 47 +30 +39 жарко 1019.6 1015.0
00 9.12 ЮВ 1 16 км ясно +25.5 +12.2 44 +27 +27 жарко 1018.4 1013.9 +14.0 +27.6
03 9.12 штиль 0 16 км ясно +19.9 +15.7 77 +22 +22 комфорт 1018.5 1014.0
06 9.12 штиль 0 16 км ясно +17.8 +15.9 89 +18 +18 1018.7 1014.2 +27.6
09 9.12 штиль 0 16 км ясно +14.2 +12.5 90 +14 +14 1017.5 1013.0
15 9.12 В 1 16 км ясно +17.0 +11.2 69 +18 +19 1016.8 1012.2
18 9.12 ЮВ 1 16 км ясно +25.2 +10.6 40 +26 +37 жарко 1016.4 1011.6 +13.0 +26.0
21 9.12 В 1 16 км ясно +29.6 +6.7 24 +28 +37 жарко 1015.5 1011.0
00 10.12 Ю 2 16 км ясно +28.0 +9.7 32 +28 +28 жарко 1016.1 1011.6 +13.0 +30.8
03 10.12 штиль 0 16 км ясно +21.6 +18.3 82 +26 +26 душно 1017.4 1013.0
06 10.12 В 1 16 км ясно +18.6 +18.0 96 +21 +21 комфорт 1017.9 1013.4 +30.8
09 10.12 штиль 0 16 км ясно +17.0 +16.7 98 +17 +17 1018.4 1013.9
12 10.12 штиль 0 16 км ясно +15.4 +14.8 96 +15 +15 1017.3 1012.8 +14.6 +30.8
15 10.12 штиль 0 16 км ясно +16.0 +12.7 81 +16 +17 1017.2 1012.6
21 10.12 В 1 16 км ясно +29.6 +10.7 31 +30 +38 жарко 1015.7 1011.2
00 11.12 В 1 16 км ясно +28.4 +11.6 35 +29 +29 жарко 1014.9 1010.4 +14.6 +30.8
03 11.12 В 1 16 км ясно +22.2 +15.7 67 +26 +26 душно 1015.2 1010.8
06 11.12 В 1 16 км ясно +18.2 +16.3 89 +20 +20 1015.9 1011.4 +14.6 +30.8
12 11.12 В 1 16 км ясно +15.2 +14.9 98 +16 +16 1017.3 1012.8 +14.6 +30.8
15 11.12 В 1 16 км ясно +17.4 +15.8 90 +18 +20 1015.8 1011.2
18 11.12 ЮВ 1 16 км ясно +24.6 +15.3 56 +28 +38 душно 1017.4 1012.8 +13.8 +25.0
21 11.12 Ю 1 16 км ясно +26.8 +18.3 60 +32 +40 очень
душно
1013.9 1012.4

 

Местоположение метеостанции Culiacan (Мексика): широта 24.80 долгота -107.40 высота над уровнем моря 39 м.

В архиве по умолчанию представлена погода в Culiacan за последнюю неделю. Архивные данные за месяц целиком и за предыдущие месяцы, начиная с января 2011 года, Вы можете получить, выбрав интересующий диапазон дат из раскрывающегося списка и нажав кнопку "Ввод!".


*Определитесь, кто Вы:
робот инопланетянин человек

Внимание! Время в таблицах - всемирное. Для получения местного времени необходимо прибавить поправку, которая в Culiacan равна -7 ч.

Смотрите также архив погоды в соседних городах и на ближайших метеорологических станциях:

Погода в Tepehuanes (Мексика) (180 км)
Погода в Mazatlan (Мексика) (205 км)
Погода в Choix (Мексика) (229 км)
Погода в Durango (Мексика) (296 км)
Погода в Hidalgo del Parral (Мексика) (298 км)
Погода в La Paz (Мексика) (302 км)
Погода в Ciudad Obregon (Мексика) (377 км)
Погода в Sombrerete (Мексика) (407 км)
Погода в Torreon (Мексика) (411 км)
Погода в Loreto (Мексика) (415 км)

Пояснения к столбцам:

Ветер - указаны скорость ветра в м/с - средняя за 10 мин, порывы в срок и между сроками (в фигурных скобках) и направление, откуда дует ветер: С - северный, СВ - северо-восточный, В - восточный, ЮВ - юго-восточный, Ю - южный, ЮЗ - юго-западный, З - западный, СЗ - северо-западный.
Видимость - горизонтальная дальность видимости в метрах или километрах. При видимости от 1 до 10 км при отсутствии осадков обычно наблюдается дымка, при ухудшении видимости до 1 км и менее - туман. В сухую погоду видимость может ухудшаться дымом, пылью или мглою.
Явления - указаны атмосферные явления, наблюдавшиеся в срок или в последний час перед сроком; фигурными скобками обозначены явления, наблюдавшиеся между сроками (за 1-3 часа до срока); квадратными скобками обозначены град или гололедные отложения с указанием их диаметра в мм.
Облачность - указаны через наклонную черту общая и нижняя облачность в баллах и высота нижней границы облаков в метрах; квадратными скобками обозначены формы облаков: Ci - перистые, Cs - перисто-слоистые, Cc - перисто-кучевые, Ac - высококучевые, As - высокослоистые, Sc - слоисто-кучевые, Ns - слоисто-дождевые, Cu - кучевые, Cb - кучево-дождевые. Подробнее классификацию облаков см. в Атласе облаков (PDF).
T - Температура воздуха - температура, измеренная на высоте 2 м над землей.
Td - Температура точки росы - температура, при понижении до которой содержащийся в воздухе водяной пар достигнет насыщения.
f - Относительная влажность воздуха - влажноcть воздуха, измеренная на высоте 2 м над землей.
Te - Эффективная температура - температура, которую ощущает одетый по сезону человек в тени. Характеристика душности погоды. При расчете учитывается влияние влажности воздуха и скорости ветра на теплоощущения человека.
Tes - Эффективная температура на солнце - температура, которую ощущает человек, с поправкой на солнечный нагрев. Характеристика знойности погоды. Зависит от высоты солнца над горизонтом, облачности и скорости ветра. Ночью, в пасмурную погоду, а также при ветре 12 м/с и более поправка равна нулю.
P - Атмосферное давление - приведенное к уровню моря атмосферное давление.
Po - Атмосферное давление - измеренное на уровне метеостанции атмосферное давление.
Tmin - Минимальная температура - минимум температуры воздуха на высоте 2 м над землей.
Tmax - Максимальная температура - максимум температуры воздуха на высоте 2 м над землей.
R - Количество осадков - Количество выпавших осадков за период времени, мм. При наведении курсора мыши на число - период времени, за который выпало указанное количество осадков.
R24 - Количество осадков - Количество выпавших осадков за 24 часа, мм.
S - Снежный покров - Высота снежного покрова, см. При наведении курсора мыши на число - состояние снежного покрова и степень покрытия местности в баллах.